Location: Équennes
(49.7375°N, 1.9622°E)
Time: 01:32:34
(UTC+00:00)

Lacrosse 4 Rocket - Pass Details

Date: 28 January 2023
Orbit: 536 x 607 km, 68.0° (Epoch: 31 March)

Event Time Altitude Azimuth Distance (km) Brightness Sun altitude
Rises 17:11:35 0° 280° (W) 2,878 6.1 -5.5°
Reaches altitude 10° 17:15:19 10° 312° (NW) 1,974 4.5 -6.0°
Maximum altitude 17:17:01 12° 335° (NNW) 1,847 4.1 -6.3°
Drops below altitude 10° 17:18:43 10° 357° (N) 1,969 4.0 -6.5°
Enters shadow 17:22:09 - 28° (NNE) 2,777 4.5 -7.1°
